Погода в Величке

Польша     49°59′15″N   20°03′08″E
темп.,
°C
ветер,
м/с
пор.,
м/с
влажн.,
%
обл.,
%
осадки,
мм/ч
давл.,
гПа
погр.,
м
19 января, ср
ср1901:00−1з588290 0.0 1035581
04:00−3зюз378913 0.0 1033222
07:00−4юз23845 0.0 103285
10:00−1зюз256651 0.0 1030210
13:00+2зюз2459100 0.0 1026241
16:00−1ююз1180100 0.0 102310
19:00−2ююз1188100 0.0 102013
22:00−3зюз2486100 0.0 101876
20 января, чт
чт2001:00−1юз5137394 0.0 1016453
04:00+1зюз8167099 0.0 1013926
07:00+1зюз81679100 0.1 1012813
10:00+1з71497100 1.6 10111110
13:00+1з101678100 2.7 10091573
16:00−3зсз815718 1.4 10131069
19:00−3з81480100 1.4 10141199
22:00−3з7128083 0.1 1016933
21 января, пт
пт2101:00−3зсз7137995 0.3 10171074
04:00−4з8147797 0.1 1018978
07:00−4з8148898 0.3 10191071
10:00−4з8138699 0.2 10191010
13:00−3з71290100 0.4 10181091
16:00−3зсз5117846 0.9 1018544
19:00−4з51182100 1.0 1019543
22:00−4з51091100 0.1 1020591
22 января, сб
сб2201:00−4з61189100 0.2 1019684
04:00−5з6129186 0.1 1019609
07:00−5з6119197 0.1 1018589
10:00−3зсз5991100 0.2 1018854
13:00−2сз71278100 0.8 10181372
16:00−3ссз51080100 0.3 1021484
19:00−3ссз51082100 0.4 1024781
22:00−4сз41086100 0.1 1026453
23 января, вс
вс2301:00−3зсз51190100 0.6 1027694
04:00−4зсз51294100 0.4 1027689
07:00−4сз61394100 1.3 1028737
10:00−2ссз61090100 1.2 10291055
13:00−3ссв4682100 1.8 1031838
16:00−4ссв248699 0.1 1033233
19:00−5с249198 0.3 1035157
22:00−7сз019584 0.0 103749